[[{"header":{"parameterUnit":"m.s-1","parameterCategory":1,"la1":30.2991,"la2":30.254,"lo1":-89.0895,"lo2":-89.0444,"dy":0.0017,"dx":0.0017,"nx":28,"ny":28,"refTime":"2024-04-16T21:00:00:Z","depth":0,"parameterNumber":2,"parameterNumberName":"U-component_of_WINDS"},"data":[0,0,0,0,0,0,0,0,0,0,0,0,0,0,0,0,0,0,0,0,0,0,0,0,0,0,0,0,0,0,0,0,0,0,0,0,0,0,0,0,0,0,0,0,0,0,0,0,0,0,0,0,0,0,0,0,0,0,-4.0824,-4.0825,0,-4.0878,-4.0878,-4.0879,-4.0834,-4.0832,-4.0831,-4.0829,-4.0884,-4.0887,-4.089,0,0,0,0,0,0,0,0,0,0,0,0,0,-4.0684,-4.0686,-4.0824,-4.0825,-4.0825,-4.0877,-4.0878,-4.0879,-4.0835,-4.0832,-4.083,-4.0828,-4.0883,-4.0887,-4.089,0,0,0,0,0,0,0,0,0,0,0,0,0,-4.0742,-4.0687,-4.0824,-4.0809,-4.0809,-4.0877,-4.0878,-4.0879,-4.0835,-4.0832,-4.083,-4.0827,-4.0882,-4.0886,-4.0891,-4.0977,0,0,-4.0906,-4.0908,0,0,0,0,0,0,0,0,-4.0738,-4.0747,-4.0811,-4.0811,-4.081,-4.0846,-4.0849,-4.0912,-4.0836,-4.0825,-4.0829,-4.0826,-4.0874,-4.0879,-4.0895,-4.0979,-4.0982,-4.0906,-4.0909,-4.0911,-4.0912,0,0,0,0,0,0,0,-4.0734,-4.0744,-4.0845,-4.0812,-4.0811,-4.08,-4.0806,-4.0861,-4.0864,-4.0826,-4.0823,-4.083,-4.0873,-4.0891,-4.0896,-4.0982,-4.0906,-4.091,-4.0913,-4.0915,-4.1139,-4.1142,0,0,0,0,0,0,-4.0732,-4.0741,-4.0843,-4.0847,-4.0766,-4.0805,-4.0811,-4.0837,-4.0864,-4.0865,-4.0832,-4.0827,-4.0884,-4.0891,-4.0898,-4.0999,-4.0911,-4.0916,-4.0918,-4.1136,-4.114,-4.1143,0,0,0,0,0,0,-4.0729,-4.0741,-4.0841,-4.0793,-4.0805,-4.0811,-4.0841,-4.084,-4.0858,-4.0868,-4.0869,-4.0849,-4.0882,-4.0891,-4.0957,-4.1,-4.0918,-4.0922,-4.1132,-4.1137,-4.1141,-4.1202,0,0,0,0,0,0,-4.0725,-4.0741,-4.0773,-4.0794,-4.0808,-4.09,-4.0843,-4.0843,-4.0866,-4.0861,-4.0885,-4.0886,-4.088,-4.095,-4.0962,-4.1005,-4.0926,-4.1128,-4.1134,-4.114,-4.1196,-4.1208,-4.1218,0,0,0,0,0,-4.072,-4.0788,-4.0775,-4.0787,-4.0848,-4.0902,-4.091,-4.0902,-4.087,-4.0902,-4.0909,-4.0885,-4.0994,-4.0957,-4.097,-4.1015,-4.1126,-4.1133,-4.1139,-4.1191,-4.1206,-4.1218,0,0,0,0,0,0,-4.0771,-4.079,-4.0776,-4.0853,-4.0876,-4.0894,-4.0935,-4.0918,-4.0951,-4.0944,-4.0933,-4.0939,-4.1008,-4.1019,-4.0978,-4.11,-4.1055,-4.1064,-4.109,-4.1104,-4.1114,-4.1109,-4.093,0,0,0,0,0,-4.0792,-4.0834,-4.0848,-4.0914,-4.0927,-4.0929,-4.0952,-4.0944,-4.0968,-4.0978,-4.099,-4.1014,-4.1053,-4.1079,-4.1116,-4.1198,-4.1202,-4.1236,-4.1247,-4.1256,-4.1264,-4.1307,-4.1322,-4.1166,-4.1165,-4.1165,0,0,-4.0833,-4.0849,-4.0876,-4.0925,-4.0942,-4.0986,-4.0938,-4.0986,-4.1018,-4.0985,-4.1047,-4.1058,-4.1084,-4.1158,-4.1191,-4.1169,-4.1308,-4.1265,-4.1272,-4.1275,-4.1316,-4.133,-4.1344,-4.117,-4.1169,-4.1169,0,0,-4.0932,-4.0949,-4.1005,-4.1023,-4.105,-4.1052,-4.1065,-4.1087,-4.1092,-4.1155,-4.1131,-4.117,-4.1238,-4.1257,-4.1276,-4.1384,-4.1362,-4.1396,-4.1453,-4.1496,-4.1508,-4.1519,-4.1555,-4.1569,-4.1405,-4.1405,-4.1405,0,-4.098,-4.1044,-4.1036,-4.1086,-4.1108,-4.1081,-4.1138,-4.1156,-4.1194,-4.121,-4.1185,-4.127,-4.1286,-4.1364,-4.139,-4.1407,-4.1422,-4.1392,-4.1507,-4.1518,-4.1527,-4.1562,-4.1576,-4.1409,-4.1408,-4.1408,-4.1407,0,-4.1102,-4.1148,-4.119,-4.1227,-4.1254,-4.1308,-4.1307,-4.1336,-4.1326,-4.133,-4.1395,-4.1413,-4.1453,-4.1472,-4.1463,-4.1548,-4.1534,-4.1508,-4.1462,-4.1546,-4.1579,-4.1592,-4.1414,-4.1413,-4.1412,-4.1411,0,0,-4.1231,-4.1264,-4.128,-4.1296,-4.1324,-4.1359,-4.1412,-4.1451,-4.1475,-4.1503,-4.1546,-4.1605,-4.1582,-4.1603,-4.1597,-4.1634,-4.1716,-4.1604,-4.1604,-4.1623,-4.1811,-4.1828,-4.1844,-4.1704,-4.1706,-4.1709,-4.1808,0,-4.1329,-4.142,-4.1414,-4.1499,-4.1541,-4.1517,-4.1562,-4.1585,-4.1591,-4.1627,-4.1634,-4.1675,-4.1642,-4.1655,-4.1691,-4.1699,-4.1754,-4.1692,-4.1743,-4.1745,-4.1734,-4.1861,-4.1879,-4.1972,-4.1821,-4.1823,-4.1824,0,-4.1455,-4.1486,-4.1576,-4.1598,-4.1615,-4.1656,-4.1691,-4.1727,-4.1752,-4.1754,-4.1779,-4.1766,-4.1819,-4.1774,-4.1847,-4.1805,-4.1826,-4.1833,-4.1837,-4.1839,-4.1788,-4.1865,-4.2001,-4.2015,-4.1845,-4.1843,-4.1842,0,-4.1538,-4.1603,-4.1665,-4.168,-4.1708,-4.1737,-4.175,-4.1773,-4.1797,-4.1828,-4.1844,-4.1881,-4.1901,-4.1931,-4.1929,-4.1897,-4.2002,-4.1957,-4.2004,-4.2004,-4.2025,-4.2023,-4.2165,-4.2043,-4.2043,-4.2043,-4.2042,0,-4.1646,-4.1701,-4.1702,-4.174,-4.1801,-4.1795,-4.1856,-4.1866,-4.1886,-4.1925,-4.1908,-4.1945,-4.1941,-4.1979,-4.1978,-4.2038,-4.2048,-4.205,-4.2048,-4.205,-4.2049,-4.2062,-4.2054,-4.2046,-4.2045,-4.2045,-4.2044,0,-4.1748,-4.1751,-4.1816,-4.1838,-4.1845,-4.1888,-4.1907,-4.1943,-4.1948,-4.1998,-4.2009,-4.2017,-4.206,-4.2062,-4.2112,-4.2112,-4.2184,-4.2176,-4.2175,-4.2172,-4.2218,-4.2213,-4.2371,-4.2391,-4.2258,-4.2259,-4.226,0,-4.1815,-4.1857,-4.1883,-4.1908,-4.1923,-4.1964,-4.1988,-4.1985,-4.2011,-4.2043,-4.2075,-4.2117,-4.215,-4.2221,-4.2231,-4.2269,-4.2261,-4.2314,-4.2267,-4.2267,-4.226,-4.2256,-4.226,-4.2322,-4.2324,-4.2325,-4.2326,0,-4.1934,-4.1934,-4.197,-4.2007,-4.2037,-4.2066,-4.2092,-4.2114,-4.2113,-4.2144,-4.2188,-4.2214,-4.2265,-4.2307,-4.2344,-4.2358,-4.2342,-4.2341,-4.2354,-4.2354,-4.2351,-4.2351,-4.2197,-4.2337,-4.2336,-4.2335,-4.2334,-4.2334,-4.202,-4.2055,-4.2079,-4.212,-4.214,-4.2166,-4.22,-4.221,-4.2247,-4.2288,-4.2284,-4.2333,-4.2358,-4.2406,-4.2423,-4.2461,-4.2443,-4.2462,-4.2466,-4.247,-4.2474,-4.2347,-4.2468,-4.2468,-4.2468,-4.2468,-4.2467,0,-4.2136,-4.2151,-4.2188,-4.2226,-4.2258,-4.2242,-4.2271,-4.2299,-4.2342,-4.2366,-4.2399,-4.245,-4.2491,-4.2505,-4.2544,-4.2572,-4.2566,-4.2582,-4.2579,-4.2582,-4.2489,-4.2473,-4.2587,-4.2587,-4.2587,-4.2587,-4.2587,-4.2587,-4.22,-4.2259,-4.2262,-4.2331,-4.2346,-4.2393,-4.2411,-4.2435,-4.2454,-4.2512,-4.2545,-4.2554,-4.2575,-4.2616,-4.2652,-4.2655,-4.267,-4.2689,-4.2689,-4.2601,-4.2589,-4.2577,-4.2562,-4.2693,-4.2693,-4.2779,-4.2779,-4.278]},{"header":{"parameterUnit":"m.s-1","parameterCategory":1,"la1":30.2991,"la2":30.254,"lo1":-89.0895,"lo2":-89.0444,"dy":0.0017,"dx":0.0017,"nx":28,"ny":28,"refTime":"2024-04-16T21:00:00:Z","depth":0,"parameterNumber":3,"parameterNumberName":"V-component_of_WINDS"},"data":[0,0,0,0,0,0,0,0,0,0,0,0,0,0,0,0,0,0,0,0,0,0,0,0,0,0,0,0,0,0,0,0,0,0,0,0,0,0,0,0,0,0,0,0,0,0,0,0,0,0,0,0,0,0,0,0,0,0,3.1934,3.1933,0,3.1867,3.1867,3.1866,3.1857,3.1857,3.1858,3.1859,3.1786,3.1783,3.1781,0,0,0,0,0,0,0,0,0,0,0,0,0,3.2049,3.2047,3.1934,3.1933,3.1932,3.1868,3.1867,3.1866,3.1857,3.1857,3.1858,3.1859,3.1787,3.1784,3.1781,0,0,0,0,0,0,0,0,0,0,0,0,0,3.1992,3.2046,3.1934,3.192,3.1918,3.1868,3.1867,3.1865,3.1857,3.1857,3.1858,3.1859,3.1788,3.1784,3.178,3.1738,0,0,3.1769,3.1767,0,0,0,0,0,0,0,0,3.1996,3.1988,3.1923,3.1921,3.1919,3.1872,3.1881,3.1822,3.1856,3.188,3.1859,3.186,3.1813,3.1807,3.1793,3.1734,3.1731,3.1768,3.1766,3.1764,3.1763,0,0,0,0,0,0,0,3.2,3.1991,3.1907,3.1922,3.1919,3.1916,3.1909,3.187,3.1842,3.1878,3.1877,3.187,3.1812,3.1796,3.1791,3.173,3.1768,3.1765,3.1763,3.1761,3.1635,3.1634,0,0,0,0,0,0,3.2007,3.1994,3.1909,3.1905,3.1961,3.1913,3.1905,3.1886,3.1842,3.1837,3.1869,3.1869,3.1802,3.1795,3.1788,3.1737,3.1764,3.1761,3.1759,3.1636,3.1635,3.1634,0,0,0,0,0,0,3.2009,3.1999,3.1912,3.195,3.1938,3.191,3.1888,3.1884,3.1868,3.1835,3.183,3.1858,3.1803,3.1794,3.1751,3.1734,3.1759,3.1756,3.1637,3.1636,3.1634,3.1633,0,0,0,0,0,0,3.2013,3.2,3.1984,3.1949,3.1936,3.1877,3.1887,3.1882,3.1862,3.1862,3.1824,3.1818,3.1803,3.1757,3.1747,3.1729,3.1753,3.1639,3.1637,3.1635,3.1634,3.1632,3.1629,0,0,0,0,0,3.2017,3.1985,3.1984,3.1973,3.1916,3.1876,3.1868,3.1853,3.1861,3.1844,3.1824,3.182,3.1738,3.1752,3.1742,3.1722,3.164,3.1637,3.1635,3.1636,3.1632,3.1629,0,0,0,0,0,0,3.2016,3.198,3.1978,3.1935,3.1909,3.1875,3.1853,3.1849,3.1819,3.182,3.1801,3.1792,3.1751,3.1732,3.1749,3.168,3.1689,3.1685,3.1694,3.169,3.1687,3.1693,3.1749,0,0,0,0,0,3.2012,3.1983,3.1953,3.1917,3.1905,3.1881,3.1863,3.1854,3.1825,3.1814,3.179,3.1761,3.173,3.1709,3.1677,3.1632,3.1624,3.1613,3.1611,3.1609,3.1605,3.1581,3.1576,3.1626,3.1626,3.1626,0,0,3.2,3.1977,3.196,3.1917,3.1895,3.1866,3.1872,3.184,3.1818,3.1808,3.1768,3.1749,3.1716,3.1673,3.1652,3.1656,3.159,3.1606,3.1604,3.1602,3.1578,3.1574,3.1569,3.1624,3.1624,3.1625,0,0,3.1966,3.1945,3.1915,3.1894,3.1863,3.1848,3.1841,3.1808,3.1796,3.1755,3.1748,3.1721,3.1666,3.1643,3.1624,3.1584,3.1579,3.1574,3.156,3.1537,3.1533,3.153,3.1516,3.1511,3.157,3.157,3.157,0,3.1955,3.1912,3.1898,3.1868,3.1849,3.1842,3.181,3.179,3.175,3.1736,3.1742,3.1674,3.1651,3.1603,3.1594,3.1578,3.1569,3.1578,3.1535,3.1531,3.1528,3.1515,3.151,3.157,3.157,3.157,3.157,0,3.1902,3.1872,3.1851,3.1815,3.1793,3.1762,3.1743,3.1723,3.1716,3.17,3.1659,3.1632,3.1596,3.1583,3.1575,3.1534,3.1538,3.1539,3.1548,3.1523,3.151,3.1505,3.1569,3.1569,3.157,3.157,0,0,3.1863,3.1823,3.1815,3.1799,3.1766,3.1742,3.171,3.1677,3.1661,3.1633,3.1607,3.1561,3.1563,3.1542,3.1531,3.1511,3.1482,3.1515,3.1514,3.151,3.1437,3.1437,3.1431,3.1479,3.1478,3.1477,3.144,0,3.1826,3.1772,3.176,3.1713,3.1685,3.1679,3.1652,3.1628,3.1613,3.1587,3.1569,3.1538,3.1542,3.153,3.151,3.149,3.1467,3.1492,3.1454,3.1452,3.1463,3.1424,3.1423,3.139,3.1435,3.1434,3.1433,0,3.1774,3.1748,3.17,3.1672,3.166,3.1636,3.1605,3.1581,3.1553,3.1544,3.1522,3.1513,3.148,3.1491,3.1445,3.1463,3.1446,3.1434,3.1433,3.1428,3.1442,3.142,3.1378,3.1374,3.1425,3.1426,3.1427,0,3.1752,3.1705,3.1671,3.1658,3.1624,3.1607,3.1592,3.1566,3.1547,3.152,3.1508,3.1477,3.146,3.1435,3.1418,3.1428,3.1374,3.1384,3.1365,3.1366,3.1354,3.1355,3.131,3.1343,3.1343,3.1343,3.1343,0,3.1711,3.1682,3.1661,3.164,3.1607,3.1593,3.156,3.1545,3.1522,3.1497,3.1489,3.1465,3.1445,3.1418,3.1405,3.1369,3.1361,3.1352,3.1349,3.1353,3.1355,3.1342,3.1344,3.1341,3.1342,3.1342,3.1342,0,3.1681,3.1666,3.1629,3.1601,3.1593,3.157,3.1546,3.1524,3.151,3.1479,3.147,3.1447,3.1416,3.1397,3.1357,3.1348,3.1309,3.1306,3.1319,3.1318,3.1301,3.1303,3.1246,3.1239,3.1276,3.1276,3.1275,0,3.1657,3.1635,3.1605,3.1589,3.1575,3.1548,3.153,3.1516,3.1497,3.1466,3.1448,3.1417,3.1391,3.1341,3.132,3.129,3.1286,3.1269,3.1282,3.1287,3.1287,3.1289,3.1287,3.1267,3.1266,3.1266,3.1266,0,3.1615,3.1609,3.1585,3.1558,3.1537,3.1515,3.1492,3.1479,3.1461,3.144,3.1409,3.139,3.135,3.1319,3.1287,3.127,3.1265,3.1262,3.1257,3.1261,3.127,3.1266,3.1314,3.1264,3.1264,3.1264,3.1264,3.1264,3.1587,3.1568,3.1545,3.1519,3.1501,3.1481,3.146,3.1445,3.1419,3.1387,3.138,3.1348,3.1322,3.1279,3.1262,3.1236,3.1238,3.123,3.1228,3.1226,3.1226,3.1274,3.123,3.123,3.123,3.123,3.123,0,3.1546,3.1532,3.1507,3.1478,3.1457,3.1456,3.1432,3.1414,3.1387,3.1364,3.134,3.1305,3.1275,3.1253,3.1223,3.1206,3.1203,3.1199,3.12,3.1196,3.1225,3.1233,3.1202,3.1202,3.1202,3.1202,3.1202,3.1202,3.1522,3.149,3.1482,3.1441,3.1426,3.1397,3.1383,3.1364,3.1347,3.1309,3.1286,3.1272,3.1249,3.1218,3.1191,3.1185,3.1174,3.117,3.1164,3.1191,3.1194,3.1197,3.1205,3.1168,3.1168,3.1137,3.1137,3.1137]}]]